Weather History for Buckhannon, WV

Change the Weather History Date:

Friday, January 11, 2013

  Actual Average (KEKN) Record (KEKN)
Temperature  
Mean Temperature 56 °F 29 °F  
Max Temperature 62 °F 39 °F 65 °F (1913)
Min Temperature 51 °F 19 °F -15 °F (1970)
Degree Days  
Heating Degree Days 8 36  
Month to date heating degree days 396  
Since 1 July heating degree days 2687  
Cooling Degree Days 0 0  
Month to date cooling degree days 0  
Year to date cooling degree days 0  
Growing Degree Days 6 (Base 50)    
Moisture  
Dew Point 48 °F    
Average Humidity 78    
Maximum Humidity 100    
Minimum Humidity 51    
Precipitation  
Precipitation 0.05 in 0.10 in 1.45 in (1916)
Month to date precipitation 1.12  
Year to date precipitation 1.12  
Snow  
Snow 0.00 in - - ()
Month to date snowfall  
Since 1 September snowfall  
Snow Depth -    
Sea Level Pressure  
Sea Level Pressure 30.10 in    
Wind  
Wind Speed 8 mph (SSW)    
Max Wind Speed 22 mph    
Max Gust Speed 34 mph    
Visibility 10 miles    
Events Rain    
T = Trace of Precipitation, MM = Missing Value Source: NWS Daily Summary

Daily Weather History Graph

Daily Weather History Graph

Search for Another Location

Airport:

Trip Planner

Search our weather history database for the weather conditions in past years. The results will help you decide how hot, cold, wet, or windy it might be!

Date:

Astronomy

Jan. 11, 2013 Rise Set
Actual Time 7:39 AM EST 5:19 PM EST
Civil Twilight 7:10 AM EST 5:48 PM EST
Nautical Twilight 6:37 AM EST 6:21 PM EST
Astronomical Twilight 6:04 AM EST 6:53 PM EST
Moon 7:11 AM EST (1/11) 5:34 PM EST (1/11)
Length of Visible Light 10h 38m
Length of Day
9h 39m
Waning Crescent, 0% of the Moon is Illuminated
Jan 11
Waning Crescent
Jan 11
New
Jan 18
First Quarter
Jan 26
Full
Feb 3
Last Quarter

Hourly Weather History & Observations

Time (EST) Temp. Dew Point Humidity Pressure Visibility Wind Dir Wind Speed Gust Speed Precip Events Conditions
12:35 AM 51.8 °F 35.6 °F 54% 30.24 in 10.0 mi SE 5.8 mph - N/A   Clear
12:55 AM 51.8 °F 35.6 °F 54% 30.23 in 10.0 mi ESE 4.6 mph - N/A   Clear
1:15 AM 51.8 °F 35.6 °F 54% 30.23 in 10.0 mi SE 3.5 mph - N/A   Clear
1:35 AM 53.6 °F 35.6 °F 51% 30.22 in 10.0 mi SE 5.8 mph - N/A   Clear
1:55 AM 51.8 °F 35.6 °F 54% 30.22 in 10.0 mi ESE 6.9 mph - N/A   Partly Cloudy
2:15 AM 51.8 °F 35.6 °F 54% 30.21 in 10.0 mi East 9.2 mph - N/A   Partly Cloudy
2:35 AM 51.8 °F 35.6 °F 54% 30.21 in 10.0 mi ESE 5.8 mph - N/A   Clear
2:55 AM 51.8 °F 37.4 °F 58% 30.21 in 10.0 mi Calm Calm - N/A   Clear
3:15 AM 51.8 °F 37.4 °F 58% 30.22 in 10.0 mi Calm Calm - N/A   Clear
3:35 AM 53.6 °F 37.4 °F 54% 30.21 in 10.0 mi South 6.9 mph - N/A   Clear
3:55 AM 53.6 °F 39.2 °F 58% 30.20 in 10.0 mi South 8.1 mph - N/A   Clear
4:15 AM 51.8 °F 39.2 °F 62% 30.19 in 10.0 mi South 6.9 mph - N/A   Clear
4:35 AM 51.8 °F 41.0 °F 67% 30.18 in 10.0 mi SSE 6.9 mph - N/A   Clear
4:55 AM 53.6 °F 42.8 °F 67% 30.17 in 10.0 mi South 6.9 mph - N/A   Partly Cloudy
5:15 AM 53.6 °F 42.8 °F 67% 30.18 in 10.0 mi South 6.9 mph - N/A Rain Light Rain
5:35 AM 53.6 °F 42.8 °F 67% 30.19 in 10.0 mi SSW 5.8 mph - N/A   Clear
5:55 AM 53.6 °F 42.8 °F 67% 30.18 in 10.0 mi SSE 3.5 mph - N/A   Partly Cloudy
6:15 AM 53.6 °F 42.8 °F 67% 30.18 in 10.0 mi Calm Calm - N/A   Clear
6:35 AM 53.6 °F 42.8 °F 67% 30.17 in 10.0 mi Calm Calm - N/A   Clear
7:15 AM 53.6 °F 42.8 °F 67% 30.16 in 10.0 mi South 5.8 mph - N/A   Clear
7:35 AM 53.6 °F 44.6 °F 72% 30.16 in 10.0 mi SSW 8.1 mph - N/A   Clear
7:55 AM 55.4 °F 44.6 °F 67% 30.15 in 10.0 mi South 15.0 mph 19.6 mph N/A   Clear
8:15 AM 55.4 °F 44.6 °F 67% 30.14 in 10.0 mi South 13.8 mph 27.6 mph N/A   Clear
8:35 AM 55.4 °F 46.4 °F 72% 30.14 in 10.0 mi SSW 10.4 mph - N/A   Partly Cloudy
8:55 AM 55.4 °F 46.4 °F 72% 30.12 in 10.0 mi South 11.5 mph - N/A   Partly Cloudy
9:15 AM 57.2 °F 46.4 °F 67% 30.10 in 10.0 mi South 9.2 mph - N/A   Scattered Clouds
9:35 AM 60.8 °F 48.2 °F 63% 30.08 in 10.0 mi South 17.3 mph 25.3 mph N/A   Scattered Clouds
9:55 AM 60.8 °F 48.2 °F 63% 30.07 in 10.0 mi South 13.8 mph 25.3 mph N/A   Scattered Clouds
10:15 AM 62.6 °F 48.2 °F 59% 30.07 in 10.0 mi South 12.7 mph 23.0 mph N/A   Scattered Clouds
10:35 AM 62.6 °F 48.2 °F 59% 30.06 in 10.0 mi South 19.6 mph 25.3 mph N/A   Scattered Clouds
10:55 AM 62.6 °F 48.2 °F 59% 30.06 in 10.0 mi South 17.3 mph 21.9 mph N/A   Partly Cloudy
11:15 AM 62.6 °F 48.2 °F 59% 30.05 in 10.0 mi South 21.9 mph 34.5 mph N/A   Light Drizzle
11:35 AM 60.8 °F 50.0 °F 68% 30.05 in 9.0 mi South 21.9 mph 34.5 mph N/A Rain Light Rain
11:55 AM 59.0 °F 51.8 °F 77% 30.04 in 10.0 mi SSW 13.8 mph 24.2 mph N/A   Scattered Clouds
12:15 PM 60.8 °F 51.8 °F 72% 30.02 in 10.0 mi South 15.0 mph 23.0 mph N/A   Mostly Cloudy
12:35 PM 62.6 °F 50.0 °F 63% 30.01 in 10.0 mi South 13.8 mph - N/A   Scattered Clouds
12:55 PM 60.8 °F 51.8 °F 72% 30.01 in 8.0 mi South 11.5 mph 19.6 mph N/A Rain Light Rain
1:15 PM 60.8 °F 53.6 °F 77% 30.00 in 10.0 mi South 8.1 mph - N/A   Mostly Cloudy
1:35 PM 60.8 °F 51.8 °F 72% 30.01 in 10.0 mi SW 13.8 mph 24.2 mph N/A   Mostly Cloudy
1:55 PM 60.8 °F 51.8 °F 72% 30.02 in 10.0 mi SW 17.3 mph 26.5 mph N/A   Overcast
2:15 PM 60.8 °F 51.8 °F 72% 30.02 in 10.0 mi SW 12.7 mph - N/A   Overcast
2:35 PM 59.0 °F 51.8 °F 77% 30.02 in 10.0 mi SW 8.1 mph - N/A   Overcast
2:55 PM 57.2 °F 53.6 °F 88% 30.03 in 6.0 mi West 11.5 mph 16.1 mph N/A   Haze
3:15 PM 55.4 °F 55.4 °F 100% 30.05 in 1.2 mi West 12.7 mph 19.6 mph 0.03 in   Overcast
3:35 PM 53.6 °F 53.6 °F 100% 30.04 in 4.0 mi SW 9.2 mph 17.3 mph 0.05 in   Mostly Cloudy
3:55 PM 53.6 °F 53.6 °F 100% 30.05 in 9.0 mi SW 9.2 mph - 0.05 in   Light Drizzle
4:15 PM 53.6 °F 53.6 °F 100% 30.03 in 10.0 mi South 8.1 mph - N/A   Scattered Clouds
4:35 PM 53.6 °F 53.6 °F 100% 30.04 in 10.0 mi SSW 9.2 mph - N/A   Partly Cloudy
4:55 PM 53.6 °F 53.6 °F 100% 30.04 in 2.5 mi South 8.1 mph - N/A   Mostly Cloudy
5:15 PM 53.6 °F 53.6 °F 100% 30.04 in 5.0 mi South 8.1 mph - N/A   Mostly Cloudy
5:35 PM 53.6 °F 53.6 °F 100% 30.03 in 10.0 mi South 8.1 mph - N/A   Mostly Cloudy
5:55 PM 53.6 °F 53.6 °F 100% 30.04 in 10.0 mi SSW 4.6 mph - N/A   Mostly Cloudy
6:15 PM 53.6 °F 53.6 °F 100% 30.05 in 10.0 mi WSW 4.6 mph - N/A   Mostly Cloudy
6:35 PM 53.6 °F 53.6 °F 100% 30.05 in 10.0 mi SSW 3.5 mph - N/A   Overcast
6:55 PM 53.6 °F 53.6 °F 100% 30.05 in 10.0 mi Calm Calm - N/A   Overcast
7:15 PM 53.6 °F 53.6 °F 100% 30.05 in 10.0 mi Calm Calm - N/A   Overcast
7:35 PM 53.6 °F 53.6 °F 100% 30.05 in 10.0 mi Calm Calm - N/A   Overcast
7:55 PM 53.6 °F 53.6 °F 100% 30.05 in 10.0 mi Calm Calm - N/A   Overcast
8:15 PM 53.6 °F 53.6 °F 100% 30.05 in 10.0 mi SSW 4.6 mph - N/A   Overcast
8:35 PM 55.4 °F 55.4 °F 100% 30.05 in 10.0 mi SW 4.6 mph - N/A   Overcast
8:55 PM 55.4 °F 55.4 °F 100% 30.05 in 10.0 mi SSW 5.8 mph - N/A   Mostly Cloudy
9:15 PM 55.4 °F 55.4 °F 100% 30.05 in 10.0 mi SW 6.9 mph - N/A   Scattered Clouds
9:35 PM 55.4 °F 55.4 °F 100% 30.06 in 10.0 mi SW 8.1 mph - N/A   Clear
9:55 PM 55.4 °F 55.4 °F 100% 30.06 in 10.0 mi SW 6.9 mph - N/A   Clear
10:15 PM 57.2 °F 55.4 °F 94% 30.06 in 10.0 mi SW 8.1 mph - N/A   Clear
10:35 PM 57.2 °F 55.4 °F 94% 30.06 in 10.0 mi SW 6.9 mph - N/A   Clear
10:55 PM 55.4 °F 55.4 °F 100% 30.06 in 10.0 mi SSW 6.9 mph - N/A   Partly Cloudy
11:15 PM 57.2 °F 55.4 °F 94% 30.06 in 10.0 mi SW 8.1 mph - N/A   Mostly Cloudy
11:35 PM 57.2 °F 55.4 °F 94% 30.06 in 10.0 mi SSW 8.1 mph - N/A   Overcast
11:55 PM 57.2 °F 55.4 °F 94% 30.06 in 10.0 mi SW 8.1 mph - N/A   Mostly Cloudy